Location: Callanans Corners
(42.5326°N, 73.8846°W)
Time: 15:32:58
(UTC+00:00)

IRIDIUM 104 - Pass Details

Date: 06 October 2022
Orbit: 776 x 779 km, 86.4° (Epoch: 29 November)

Event Time Altitude Azimuth Distance (km) Brightness Sun altitude
Rises 23:00:55 0° 167° (SSE) 3,246 7.4 -6.8°
Reaches altitude 10° 23:03:18 10° 162° (SSE) 2,323 6.6 -7.3°
Maximum altitude 23:08:19 51° 87° (E) 979 4.5 -8.2°
Drops below altitude 10° 23:13:22 10° 13° (NNE) 2,341 6.7 -9.1°
Sets 23:15:47 0° 9° (N) 3,273 7.5 -9.6°
